Tracking 28081 objects as of 27-Sep-2023
HD Live streaming from Space Station
objects crossing your sky now

OSCAR 30 DEB

Track OSCAR 30 DEB now!
10-day predictions


NORAD ID: 21878
Int'l Code: 1985-066H
Perigee: 970.6 km
Apogee: 1,195.3 km
Inclination: 90.1 °
Period: 106.7 minutes
Semi major axis: 7453 km
RCS: 0.311 m2 (medium)
Launch date: August 3, 1985
Source: United States (US)
Launch site: AIR FORCE WESTERN TEST RANGE (AFWTR)

Note: This is SATELLITE DEBRIS
Your satellite tracking list
Your tracking list is empty




NASA's NSSDC Master Catalog

Two Line Element Set (TLE):
1 21878U 85066H   23269.84971560  .00001778  00000-0  26338-2 0  9990
2 21878  90.1445  54.0381 0150718 169.5864 308.8243 13.49025389864542
Source of the keplerian elements: AFSPC